Dewpoint
29 40 53 56 57 57 57 58 59 60 60 60 60 60 60 58 60 59 59 58 59 58 58 58 58 59 58 58 57 56 56 56 56 55 55 56 56 56 55 55 56 57 58
35 46 53 55 55 57 58 59 60 59 59 60 62 61 60 60 59 59 58 59 59 59 58 59 60 60 59 58 57 57 56 56 56 55 56 54 54 54 54 55 56 56 58
39 47 52 53 55 56 58 59 60 59 59 60 62 61 60 61 60 60 59 60 60 60 60 61 62 62 61 59 59 58 57 56 59 58 56 53 51 53 53 53 54 56 56
41 49 51 53 54 55 56 58 59 58 58 59 59 60 59 58 59 58 60 61 63 62 62 62 62 62 62 61 61 61 59 59 58 59 60 57 55 50 51 53 53 54 55
45 49 51 53 55 56 56 58 59 58 58 59 59 58 58 59 59 59 59 61 62 62 63 62 62 62 62 61 61 61 61 60 59 59 58 57 57 57 52 51 53 53 54
49 49 52 53 54 55 55 57 58 58 58 59 59 59 57 58 58 57 58 58 60 61 61 62 62 62 61 61 60 60 60 59 59 59 57 56 56 55 54 50 50 51 51
49 51 52 53 54 55 55 57 57 58 58 59 59 58 57 57 57 58 57 57 57 57 59 61 61 61 61 61 60 60 59 59 58 58 58 57 56 54 54 51 49 48 51
47 47 48 48 49 52 54 56 56 58 58 58 58 59 59 58 58 57 57 57 57 58 59 59 61 61 61 60 60 59 59 59 58 58 58 58 57 55 54 53 52 48 50
46 46 47 47 46 45 47 50 53 56 57 57 58 58 59 59 58 58 59 59 59 59 59 59 59 60 60 61 60 59 59 59 59 58 58 57 57 54 53 52 52 51 47
41 41 42 42 42 44 45 46 46 47 49 51 53 58 58 58 58 59 59 59 59 59 59 59 59 59 60 60 60 59 59 59 59 58 57 56 55 55 53 52 50 49 46
37 36 35 35 36 37 38 40 42 44 45 46 47 49 52 55 57 59 59 59 59 59 59 59 59 59 59 59 59 59 58 57 57 56 56 55 53 52 51 51 50 49 47
33 33 34 34 34 34 34 35 36 37 39 40 42 44 45 46 47 49 52 56 58 59 59 59 59 59 58 58 58 57 56 55 55 54 54 53 52 51 51 50 50 49 48
28 28 28 28 28 29 29 30 32 33 34 36 37 38 40 41 43 45 47 51 55 56 56 56 56 56 56 56 55 55 54 53 54 53 52 52 50 49 49 48 48 47 47
23 24 24 26 28 29 29 29 30 32 33 33 34 34 36 37 39 42 43 46 50 52 53 55 55 55 54 54 53 53 53 52 52 51 51 50 49 48 47 47 46 46 45
22 23 25 27 29 30 30 31 32 32 33 33 34 34 35 36 37 38 40 42 44 47 50 51 53 54 53 53 52 52 50 50 49 48 48 47 47 47 46 45 45 44 43
23 26 28 29 29 30 31 31 32 33 34 34 34 35 35 36 37 37 38 39 41 42 45 47 49 51 52 52 51 51 49 49 48 47 46 46 46 46 46 45 45 44 43
25 27 28 28 29 30 31 31 31 32 33 33 34 35 36 36 36 36 37 38 39 40 41 43 45 47 50 50 49 49 49 47 47 45 44 43 43 44 45 45 45 44 43
27 28 29 29 30 30 31 32 32 31 32 33 34 35 35 34 35 36 36 37 37 38 39 40 42 44 46 48 48 48 47 45 44 44 43 42 42 42 43 44 43 42 42
28 28 29 30 31 31 30 30 29 30 31 31 33 32 32 33 33 32 33 34 35 36 36 37 39 41 42 46 46 47 46 44 44 44 44 42 41 42 43 41 39 38 37
28 29 30 30 30 30 30 29 29 30 30 30 31 31 32 32 31 32 32 33 35 36 36 36 38 39 42 43 44 45 46 43 43 43 43 43 41 42 42 38 37 36 34
28 31 30 29 29 30 30 29 29 29 29 30 30 31 31 30 30 31 31 32 33 36 37 37 37 38 41 42 43 44 44 42 41 41 41 41 41 41 42 39 35 34 30
28 29 29 28 28 28 29 28 28 29 28 28 29 29 29 28 28 29 30 31 33 34 36 37 37 38 40 42 42 43 44 43 41 40 40 40 42 42 42 39 35 33 31
27 29 29 28 29 29 29 27 27 28 26 26 28 27 27 27 27 29 29 29 30 32 34 37 37 37 39 40 42 43 44 44 41 40 40 40 41 41 42 38 35 33 29
25 26 27 27 27 28 28 28 28 28 27 26 26 27 27 28 28 28 28 28 28 29 31 33 36 36 38 40 41 42 43 44 42 41 40 40 41 40 40 38 36 31 29
25 26 26 26 27 27 27 28 28 28 27 26 26 26 27 27 27 27 28 29 29 31 32 33 34 35 38 41 41 41 42 43 42 38 38 38 38 37 36 36 32 30 29
27 26 26 26 27 27 27 27 28 27 26 25 25 25 26 26 26 27 27 29 30 33 34 35 36 36 39 41 41 41 41 43 42 37 35 35 35 35 35 34 29 29 29
Wind_Speed
24 19 7 5 9 12 13 16 16 17 14 15 19 24 23 20 21 22 26 22 20 23 22 17 18 17 18 17 17 12 14 13 8 6 7 7 5 5 9 12 11 10 9
18 14 3 4 3 12 15 14 17 16 16 10 19 20 25 21 21 18 22 23 24 21 20 18 18 18 16 18 17 17 10 12 13 8 3 6 3 1 7 8 12 11 11
18 8 4 6 6 9 11 14 15 14 9 5 9 18 20 15 16 19 18 21 22 21 18 18 16 17 16 19 19 19 18 14 6 10 6 4 9 4 1 5 7 11 11
15 7 7 8 10 13 10 9 12 16 6 2 6 20 16 15 7 17 17 16 16 16 17 18 17 16 13 14 13 8 10 9 11 4 7 3 5 5 5 4 9 8 11
14 12 13 7 8 8 10 11 13 12 11 9 3 10 13 9 7 7 8 6 5 11 13 14 15 15 12 12 11 7 9 10 9 6 5 1 1 2 3 5 7 6 11
12 12 7 1 6 8 8 13 12 14 15 8 11 13 15 12 12 11 9 5 6 3 3 11 15 12 11 11 11 7 9 10 11 10 11 10 6 9 8 4 5 10 6
10 7 5 3 12 19 15 11 6 14 18 14 13 13 15 12 8 6 2 4 2 2 3 2 4 11 12 14 13 14 14 14 15 16 16 14 14 9 10 6 6 4 3
16 17 16 14 11 12 18 16 16 14 17 11 5 7 7 7 5 4 5 6 8 10 6 6 11 13 8 14 16 14 16 17 19 18 16 15 15 13 11 14 12 6 4
21 22 13 10 10 10 9 13 14 12 7 3 2 7 9 9 5 4 7 12 12 11 13 11 14 19 18 14 14 16 18 17 19 18 16 16 15 14 15 16 14 13 12
19 16 16 15 16 17 17 19 16 14 10 7 5 4 8 8 10 11 12 13 16 17 16 16 20 20 18 18 19 20 19 19 20 21 19 19 17 20 16 16 16 14 12
15 15 17 18 17 19 21 20 18 18 18 16 14 12 8 2 6 10 10 15 16 17 17 20 20 22 23 20 22 25 22 20 21 19 17 20 16 16 15 15 13 12 9
19 18 17 17 18 19 20 20 21 21 19 17 17 17 16 14 11 10 10 10 12 11 13 14 18 21 21 19 21 22 20 22 22 18 17 19 15 17 15 17 17 16 11
18 16 17 18 19 20 20 20 18 17 17 18 18 19 19 17 17 16 15 13 12 11 11 12 15 17 17 18 21 23 22 21 20 20 21 19 19 17 17 16 15 12 11
15 15 18 18 17 18 18 18 19 19 18 16 16 16 15 15 16 16 15 14 12 13 14 13 14 15 15 17 17 19 19 21 20 18 17 17 19 20 19 17 17 15 14
13 12 13 13 12 14 14 17 16 17 19 20 19 19 17 16 16 16 16 17 16 15 15 14 15 15 15 15 16 17 17 17 17 18 19 17 16 18 20 18 17 17 15
5 7 8 7 12 14 12 13 14 17 16 16 15 15 16 18 18 18 19 18 17 17 17 17 17 17 15 17 21 20 18 18 19 19 17 17 19 21 21 21 22 22 22
8 8 7 12 11 12 13 14 14 12 12 10 11 13 14 17 20 20 19 18 18 17 16 17 17 20 18 19 21 24 19 18 18 18 17 15 12 16 18 21 22 21 21
5 4 4 4 3 3 5 6 7 8 10 10 11 13 14 15 15 16 18 23 22 20 20 18 17 19 20 20 20 21 20 14 15 17 19 23 21 18 16 19 21 20 17
5 3 2 6 7 5 7 9 11 11 9 11 12 13 15 16 18 18 19 19 19 22 22 20 20 20 20 20 23 20 16 15 16 15 15 17 21 26 24 19 21 20 16
7 15 16 15 19 21 21 23 24 25 24 23 22 21 20 20 21 20 21 19 19 22 20 23 21 22 24 21 23 23 16 17 14 13 13 17 18 20 23 19 20 21 19
11 10 12 14 15 16 19 19 18 20 22 24 26 25 23 25 24 26 23 22 22 22 20 21 23 25 23 22 23 26 21 19 17 17 16 16 21 23 26 21 19 16 17
10 12 14 17 18 19 17 18 19 19 22 23 24 26 27 25 26 26 26 25 24 26 22 21 22 22 22 23 23 27 31 22 20 22 20 19 24 26 25 20 17 17 20
6 5 7 9 11 12 14 13 16 14 17 18 19 21 23 26 27 27 27 26 23 23 24 21 20 21 18 17 23 27 30 29 23 19 20 22 28 26 24 22 19 21 18
8 9 9 12 14 13 14 12 15 16 17 18 18 19 21 24 23 22 22 23 23 24 23 23 23 21 19 18 15 18 21 28 25 17 16 22 27 26 22 21 21 15 16
7 7 9 11 13 12 13 12 15 14 15 16 17 18 18 20 23 23 22 23 25 26 27 26 24 25 21 17 18 18 16 17 20 16 16 17 19 20 19 19 18 18 16
6 7 8 11 13 12 12 13 12 12 13 15 14 15 17 18 20 22 26 27 30 34 36 37 34 27 32 26 23 26 26 24 25 17 19 20 22 23 23 22 18 18 18
Wind_Direction
258 261 231 278 276 253 220 211 208 227 224 266 215 199 201 204 184 178 186 190 191 190 187 185 189 188 193 196 197 196 204 213 194 196 244 248 232 213 179 163 160 154 145
243 226 214 234 293 260 228 210 214 227 234 242 223 200 184 192 173 170 173 176 183 184 185 181 189 189 192 199 198 195 190 205 190 185 176 213 234 209 194 171 171 162 146
225 217 202 246 242 259 239 210 205 226 218 302 216 159 159 167 169 173 181 181 181 183 184 188 188 193 196 206 203 199 194 187 191 206 170 181 215 169 154 197 198 167 156
236 209 197 221 231 251 261 246 193 202 163 320 307 154 158 174 160 191 189 183 182 181 186 187 196 202 200 208 204 178 188 170 185 186 242 194 166 164 197 203 182 186 171
211 201 209 197 242 251 250 253 226 199 151 156 190 82 97 84 120 134 140 91 172 181 185 185 190 188 179 174 171 202 202 197 199 187 177 145 39 119 146 206 168 187 194
209 185 182 265 248 248 306 248 229 179 141 166 122 134 128 111 105 90 101 91 52 63 189 188 184 176 185 186 180 182 220 223 222 206 190 177 178 200 183 197 185 197 189
193 129 86 9 340 345 339 87 199 177 154 156 114 111 117 108 92 87 78 99 84 331 344 321 204 186 181 202 191 197 209 222 225 213 212 205 200 192 180 190 179 179 155
75 61 51 29 350 352 350 357 18 121 102 123 133 138 129 126 132 176 225 263 262 251 229 264 284 277 224 205 212 212 214 215 219 223 218 213 211 200 191 183 181 192 167
59 58 46 25 16 24 23 16 16 55 44 19 13 184 177 181 197 221 225 238 243 250 245 219 231 237 240 232 225 226 227 219 221 224 215 215 208 208 204 177 183 189 198
71 68 58 40 36 37 43 49 50 48 35 12 357 200 182 203 209 218 224 232 235 226 222 228 237 235 230 232 231 243 233 227 226 227 211 215 209 199 203 202 200 195 194
75 57 51 45 38 37 35 36 37 41 38 28 30 45 58 113 229 232 241 241 238 231 227 233 236 237 240 237 240 236 235 232 233 224 213 219 202 198 193 200 191 192 180
58 54 52 44 36 34 34 31 26 26 22 22 29 27 22 14 2 344 327 310 264 240 232 239 243 241 228 222 222 230 231 223 226 215 211 210 193 189 187 187 189 190 184
53 47 40 38 32 25 21 18 18 15 15 19 21 22 17 11 0 347 334 323 299 278 254 234 233 231 227 224 222 220 214 214 216 210 207 204 193 186 188 186 190 187 180
51 41 34 31 29 23 14 11 8 10 9 13 15 13 5 359 352 347 339 327 313 294 285 272 253 236 229 227 225 227 220 211 206 202 205 199 192 191 190 187 185 178 178
45 41 42 33 18 16 9 12 5 4 1 0 2 358 353 353 350 347 342 336 326 306 286 279 268 261 251 246 233 224 220 216 208 196 193 198 198 187 185 182 182 180 177
50 44 42 23 15 16 3 355 355 2 353 352 354 345 343 346 346 342 337 332 327 319 309 288 272 265 251 244 239 231 223 217 207 207 202 197 192 189 187 189 183 180 178
22 28 14 18 4 359 354 345 348 340 325 330 336 333 341 345 334 328 323 318 317 317 314 306 290 273 259 246 241 235 228 217 210 201 190 191 198 196 188 187 185 184 184
3 344 339 292 288 358 339 316 315 318 330 329 335 343 343 326 316 311 312 313 314 310 307 302 293 283 275 257 245 231 229 220 209 198 196 188 186 189 191 182 181 183 181
231 236 2 17 8 357 339 347 360 351 346 352 346 337 332 327 324 317 310 303 296 294 297 293 291 284 275 261 248 231 225 217 214 207 198 206 190 183 181 186 176 175 176
23 11 3 3 6 1 0 357 351 347 345 343 339 333 334 328 324 318 314 308 300 282 277 286 284 279 276 267 245 226 219 214 209 203 207 204 199 187 180 185 185 185 181
352 346 350 355 355 357 355 346 339 334 332 332 329 326 329 326 322 318 315 310 305 294 281 271 279 277 264 257 246 235 219 213 204 202 202 202 194 192 187 188 191 192 160
333 339 343 345 345 342 333 324 323 324 324 318 315 318 319 318 316 313 311 313 309 305 288 271 272 268 262 244 244 233 223 209 205 206 203 197 190 188 187 191 184 171 155
282 300 309 301 286 283 277 291 300 301 308 302 299 299 302 306 308 308 310 311 309 303 298 285 279 273 251 246 232 232 223 212 209 208 206 193 183 182 185 180 181 175 162
292 293 282 274 276 274 272 275 300 299 304 305 309 306 301 303 305 304 302 301 303 300 297 295 292 279 266 246 234 228 226 214 207 203 188 184 183 180 182 175 180 173 177
253 258 270 274 277 292 290 290 300 299 303 311 308 307 305 303 301 300 298 296 294 289 288 287 285 286 276 247 227 221 220 206 199 169 163 176 173 175 173 172 176 162 174
281 282 289 287 277 289 290 296 296 298 305 312 313 310 309 306 301 303 302 296 294 294 289 284 276 273 271 254 236 222 219 204 182 173 179 185 181 189 181 178 174 169 180